Showing default

TIANHUI 1-03, 40988

Orbit data source: Space-Track

TIANHUI 1-03, 40988 is a payload satellite owned by G. Cehui dili (CN) in SSO that was launched on Mon, 26 Oct 2015 UTC via a CHANG ZHENG 2D launch vehicle from the Jiuquan Satellite Launch Center, China (JSC). Payloads include a variety of satellites, spacecraft, and rockets equipped with specific instruments for various scientific and technological missions. These include communications satellites like Starlink; space stations such as the ISS; scientific satellites like the Hubble; Earth observation satellites from companies like Planet Labs, Umbra, and HawkEye 360; GPS; miniature CubeSats for education and research; and military/defense satellites.

Loading next visibility...
TIANHUI 1-03 details
Identifier
40988, 2015-061A
Orbit
SSO
Last TLE update6 hours ago
Origin
Flag of CNG. Cehui dili (CN / PRC)
ManufacturerDFH
MissionOperational Civil Imaging
Bus & MotorCAST-2000?, Unknown motor
Mass~1,000 kg wet, ~1,000 kg dry
Launch date (UTC)
2015-10-26 (9 years ago)
Launch vehicle
CHANG ZHENG 2D
Launch site
Jiuquan Satellite Launch Center, China (JSC)
Object type
Payload
Rocket body
Debris
Shape & HBRBox + 2 Pan, 3 m
Radar Cross Section2.045 m², Large (>1 m²)

Expand to show TLE details & history

TLE from 6 hours ago
0 TIANHUI 1-03
1 40988U 15061A   24361.56184403  .00047678  00000-0  80199-3 0  9991
2 40988  97.4892 134.8928 0003433  14.6040 345.5311 15.51593239510565
Epoch: 2024-12-26T13:29Z
Definitive object data (Epoch: 2024-12-26T13:29:03.324Z)
Latitude0.00004°
Longitude-162.91052°
Altitude412.947 km
Speed7.664 km/s
True Right ascension08h 59m 34s
True Declination0° 00' 00"
Sunlit
Object was in full shadow at TLE epoch
Visualization TLE readout
Latitude-21.06349°
Longitude-159.75986°
Altitude418.216 km
Speed7.66 km/s
Apparent Right ascension08h 13m 51s
Apparent Declination-31° 06' 17"
Sunlit
Object is in full shadow
Visualization observer readout
Local Sidereal Time18:57:45
Azimuth293.812° NW
Elevation-72.237°
Doppler factor1
Orbital elements
Apogee altitude411.331 km
Perigee altitude406.671 km
Semi-major axis6,787.138 km
Eccentricity0.0003433
Inclination97.4892°
RAAN134.8928°
Arg. of periapsis14.604°
True anomaly345.52127°
Mean anomaly345.5311°
Eccentric anomaly345.52618°
Mean motion3.88162 °/min
BSTAR0.00080199
Orbital period92.74 mins
Loading maneuver chart data...
Loading historical data...
Loading historical data...
Loading historical data...
Loading historical data...
Loading historical data...
Loading historical data...
Loading historical data...

TIANHUI 1-03 Visibility forecast

Observer location: undefined°, undefined

Span
Click to sort rows by Start time (UTC) header in descending order
Start Az.
Max El. time (UTC)
Max El. Az.
Max El.
End time (UTC)
End Az.
5 mins2024-12-26 21:47:04.693Z25.057° NE2024-12-26 21:49:04.693Z66.878° ENE36.507°2024-12-26 21:52:04.693Z176.415° S
|